TimeCST,TemperatureF,Dew PointF,Humidity,Sea Level PressureIn,VisibilityMPH,Wind Direction,Wind SpeedMPH,Gust SpeedMPH,PrecipitationIn,Events,Conditions,WindDirDegrees,DateUTC
12:56 AM,72.0,63.0,73,30.09,10.0,SSE,9.2,-,N/A,,Clear,160,2012-11-08 06:56:00
1:56 AM,72.0,63.0,73,30.08,10.0,South,9.2,-,N/A,,Clear,170,2012-11-08 07:56:00
2:56 AM,72.0,64.0,76,30.08,10.0,South,8.1,-,N/A,,Clear,170,2012-11-08 08:56:00
3:56 AM,71.1,64.0,78,30.07,10.0,South,9.2,-,N/A,,Clear,170,2012-11-08 09:56:00
4:56 AM,66.9,64.9,93,30.08,10.0,SW,6.9,-,N/A,,Clear,220,2012-11-08 10:56:00
5:56 AM,66.9,64.0,90,30.09,10.0,SSW,4.6,-,N/A,,Clear,210,2012-11-08 11:56:00
6:56 AM,66.9,64.0,90,30.11,10.0,Variable,4.6,-,N/A,,Partly Cloudy,0,2012-11-08 12:56:00
7:56 AM,71.1,66.9,87,30.12,10.0,South,3.5,-,N/A,,Partly Cloudy,180,2012-11-08 13:56:00
8:56 AM,77.0,66.0,69,30.14,10.0,SSE,12.7,-,N/A,,Partly Cloudy,160,2012-11-08 14:56:00
9:56 AM,80.1,64.9,60,30.15,10.0,SSE,19.6,-,N/A,,Scattered Clouds,160,2012-11-08 15:56:00
10:56 AM,82.0,64.9,56,30.14,10.0,SSE,15.0,20.7,N/A,,Scattered Clouds,160,2012-11-08 16:56:00
11:56 AM,81.0,64.9,58,30.12,10.0,SSE,16.1,26.5,N/A,,Scattered Clouds,160,2012-11-08 17:56:00
12:56 PM,82.0,66.0,58,30.08,10.0,SSE,19.6,23.0,N/A,,Scattered Clouds,160,2012-11-08 18:56:00
1:56 PM,81.0,64.9,58,30.06,10.0,SSE,17.3,25.3,N/A,,Scattered Clouds,160,2012-11-08 19:56:00
2:56 PM,81.0,64.9,58,30.04,10.0,SSE,18.4,28.8,N/A,,Scattered Clouds,160,2012-11-08 20:56:00
3:56 PM,80.1,64.9,60,30.04,10.0,SSE,20.7,-,N/A,,Scattered Clouds,160,2012-11-08 21:56:00
4:56 PM,78.1,66.9,68,30.04,10.0,SSE,17.3,25.3,N/A,,Scattered Clouds,150,2012-11-08 22:56:00
5:56 PM,75.9,66.0,71,30.04,10.0,SSE,16.1,-,N/A,,Scattered Clouds,150,2012-11-08 23:56:00
6:56 PM,75.0,66.0,73,30.06,10.0,SSE,15.0,-,N/A,,Partly Cloudy,150,2012-11-09 00:56:00
7:56 PM,75.0,64.9,71,30.07,10.0,SSE,15.0,-,N/A,,Scattered Clouds,150,2012-11-09 01:56:00
8:56 PM,75.0,66.0,73,30.07,10.0,SSE,15.0,-,N/A,,Scattered Clouds,150,2012-11-09 02:56:00
9:56 PM,75.0,66.0,73,30.07,10.0,SSE,12.7,-,N/A,,Scattered Clouds,150,2012-11-09 03:56:00
10:56 PM,75.0,64.9,71,30.06,10.0,SSE,18.4,-,N/A,,Scattered Clouds,150,2012-11-09 04:56:00
11:56 PM,75.0,64.9,71,30.06,10.0,SSE,18.4,23.0,N/A,,Partly Cloudy,160,2012-11-09 05:56:00